DW8751 Weather Reports


Display with metric or nautical units.
time (UTC)temp
F
wind
direction
speed
MPH
gust
MPH
rain 1hr
in
rain 24hr
in
rain mn
in
humidity
%
barometer
mb
20260507203104 50 196 7.0 13.0 0.00 0.00 0.00 74 1013.2
20260507202604 50 189 8.0 12.0 0.00 0.00 0.00 74 1013.2
20260507202104 50 188 8.0 12.0 0.00 0.00 0.00 73 1013.2
20260507201604 50 190 9.0 13.0 0.00 0.00 0.00 73 1013.2
20260507201103 50 185 7.0 12.0 0.00 0.00 0.00 73 1013.2
20260507200104 51 194 10.0 14.0 0.00 0.00 0.00 73 1013.2
20260507194604 51 191 7.0 12.0 0.00 0.00 0.00 72 1013.2
20260507194104 51 188 6.0 9.0 0.00 0.00 0.00 71 1013.2
20260507193604 51 178 6.0 8.0 0.00 0.00 0.00 71 1013.2
20260507193104 52 167 6.0 12.0 0.00 0.00 0.00 70 1013.2
20260507192604 52 187 7.0 10.0 0.00 0.00 0.00 70 1013.2
20260507192104 52 173 6.0 10.0 0.00 0.00 0.00 71 1013.2
20260507191604 53 188 7.0 9.0 0.00 0.00 0.00 71 1013.2
20260507191104 53 176 6.0 8.0 0.00 0.00 0.00 72 1013.2
20260507190603 53 175 6.0 10.0 0.00 0.00 0.00 72 1013.2
20260507190104 53 178 6.0 10.0 0.00 0.00 0.00 73 1013.2
20260507185604 52 189 5.0 12.0 0.00 0.00 0.00 73 1013.2
20260507185104 52 165 5.0 10.0 0.00 0.00 0.00 74 1013.2
20260507184604 53 175 6.0 9.0 0.00 0.00 0.00 74 1013.2
20260507184104 53 175 6.0 10.0 0.00 0.00 0.00 74 1013.2
20260507183604 53 174 6.0 15.0 0.00 0.00 0.00 74 1013.2
20260507182604 53 163 6.0 10.0 0.00 0.00 0.00 72 1013.2
20260507182103 53 167 6.0 12.0 0.00 0.00 0.00 73 1013.2
20260507181603 53 168 5.0 10.0 0.00 0.00 0.00 73 1013.2
20260507181104 53 166 7.0 10.0 0.00 0.00 0.00 73 1013.2
20260507180604 53 198 5.0 12.0 0.00 0.00 0.00 72 1013.2
20260507175603 53 184 7.0 12.0 0.00 0.00 0.00 72 1013.2
20260507175104 53 181 7.0 13.0 0.00 0.00 0.00 72 1013.2
20260507174604 53 178 6.0 14.0 0.00 0.00 0.00 72 1013.2
20260507174104 53 193 5.0 12.0 0.00 0.00 0.00 74 1013.2
20260507173604 53 182 6.0 12.0 0.00 0.00 0.00 74 1013.2
20260507173104 54 198 5.0 7.0 0.00 0.00 0.00 75 1013.2
20260507172604 54 184 3.0 7.0 0.00 0.00 0.00 74 1013.2
20260507172104 54 186 4.0 8.0 0.00 0.00 0.00 74 1013.2
20260507170104 54 201 6.0 10.0 0.00 0.00 0.00 74 1013.2
20260507165604 54 225 6.0 13.0 0.00 0.00 0.00 74 1013.2
20260507165104 54 220 6.0 12.0 0.00 0.00 0.00 75 1013.2
20260507164604 53 202 7.0 12.0 0.00 0.00 0.00 75 1013.2
20260507164104 53 189 9.0 14.0 0.00 0.00 0.00 75 1013.2
20260507163604 53 182 4.0 10.0 0.00 0.00 0.00 75 1013.2
20260507163104 53 173 6.0 12.0 0.00 0.00 0.00 75 1013.2
20260507162103 53 183 7.0 12.0 0.00 0.00 0.00 75 1013.2
20260507161103 53 187 9.0 13.0 0.00 0.00 0.00 73 1013.2
20260507160604 54 189 8.0 13.0 0.00 0.00 0.00 72 1013.2
20260507160104 54 185 7.0 16.0 0.00 0.00 0.00 70 1013.2
20260507155603 55 190 6.0 12.0 0.00 0.00 0.00 69 1013.2
20260507155104 55 186 8.0 13.0 0.00 0.00 0.00 69 1013.2
20260507154604 55 199 4.0 12.0 0.00 0.00 0.00 70 1013.2
20260507154103 55 212 5.0 6.0 0.00 0.00 0.00 70 1013.2
20260507153604 55 196 2.0 8.0 0.00 0.00 0.00 70 1013.2
20260507153104 55 178 3.0 5.0 0.00 0.00 0.00 71 1013.2
20260507152603 55 168 3.0 7.0 0.00 0.00 0.00 70 1013.2
20260507152104 54 191 2.0 3.0 0.00 0.00 0.00 71 1013.2
20260507151604 54 191 1.0 3.0 0.00 0.00 0.00 71 1013.2
20260507151104 54 192 3.0 6.0 0.00 0.00 0.00 71 1013.2
20260507150604 54 193 1.0 3.0 0.00 0.00 0.00 72 1013.2
20260507150104 54 193 3.0 7.0 0.00 0.00 0.00 72 1013.2
20260507145603 54 133 3.0 5.0 0.00 0.00 0.00 73 1013.2
20260507144604 53 61 1.0 2.0 0.00 0.00 0.00 74 1013.2
20260507143604 53 61 0.0 2.0 0.00 0.00 0.00 76 1013.2
20260507142604 53 61 1.0 3.0 0.00 0.00 0.00 75 1013.2
20260507142104 53 61 3.0 3.0 0.00 0.00 0.00 74 1013.2
20260507141604 53 61 1.0 3.0 0.00 0.00 0.00 73 1013.2
20260507141104 53 61 1.0 3.0 0.00 0.00 0.00 72 1013.2
20260507140604 53 61 2.0 5.0 0.00 0.00 0.00 71 1013.2
20260507140104 53 51 2.0 5.0 0.00 0.00 0.00 70 1013.2
20260507135604 53 21 3.0 6.0 0.00 0.00 0.00 73 1013.2
20260507135104 53 14 4.0 5.0 0.00 0.00 0.00 72 1013.2
20260507134604 53 4 0.0 3.0 0.00 0.00 0.00 71 1013.2
20260507134104 53 4 1.0 3.0 0.00 0.00 0.00 70 1013.2
20260507133604 53 4 3.0 6.0 0.00 0.00 0.00 70 1013.2
20260507133104 53 4 4.0 6.0 0.00 0.00 0.00 70 1013.2
20260507132604 53 5 2.0 6.0 0.00 0.00 0.00 70 1013.2
20260507132104 54 4 5.0 6.0 0.00 0.00 0.00 69 1013.2
20260507131604 54 4 4.0 6.0 0.00 0.00 0.00 68 1013.2
20260507131104 55 302 4.0 6.0 0.00 0.00 0.00 67 1013.2
20260507130604 55 272 3.0 5.0 0.00 0.00 0.00 66 1013.2
20260507130104 56 209 2.0 3.0 0.00 0.00 0.00 64 1013.2
20260507125104 56 202 0.0 2.0 0.00 0.00 0.00 61 1013.2
20260507124603 57 202 0.0 3.0 0.00 0.00 0.00 62 1013.2
20260507124104 57 202 0.0 3.0 0.00 0.00 0.00 61 1013.2
20260507123604 57 202 1.0 3.0 0.00 0.00 0.00 61 1013.2
20260507123104 57 200 3.0 6.0 0.00 0.00 0.00 61 1013.2
20260507122604 57 197 2.0 5.0 0.00 0.00 0.00 62 1013.3
20260507122104 57 188 3.0 6.0 0.00 0.00 0.00 62 1013.3
20260507121603 57 180 3.0 6.0 0.00 0.00 0.00 62 1013.3
20260507121104 57 177 3.0 7.0 0.00 0.00 0.00 61 1013.3
20260507120604 57 214 5.0 9.0 0.00 0.00 0.00 61 1013.3
20260507120104 57 175 7.0 12.0 0.00 0.00 0.00 62 1013.4
20260507114604 56 172 8.0 14.0 0.00 0.00 0.00 65 1013.3
20260507114105 56 180 8.0 15.0 0.00 0.00 0.00 63 1013.3
20260507113603 55 184 7.0 13.0 0.00 0.00 0.00 64 1013.3
20260507113104 55 163 10.0 16.0 0.00 0.00 0.00 64 1013.3
20260507112604 55 188 9.0 17.0 0.00 0.00 0.00 65 1013.3
20260507112104 55 176 10.0 14.0 0.00 0.00 0.00 65 1013.3
20260507111604 55 179 7.0 12.0 0.00 0.00 0.00 66 1013.4
20260507111103 55 180 8.0 12.0 0.00 0.00 0.00 67 1013.4
20260507110604 54 175 9.0 13.0 0.00 0.00 0.00 68 1013.4
20260507110104 54 165 6.0 13.0 0.00 0.00 0.00 68 1013.4
20260507105603 54 193 6.0 12.0 0.00 0.00 0.00 69 1013.5
20260507105104 54 181 6.0 10.0 0.00 0.00 0.00 70 1013.6
20260507104604 54 167 6.0 12.0 0.00 0.00 0.00 70 1013.6
20260507104103 54 183 5.0 12.0 0.00 0.00 0.00 70 1013.6
20260507103604 54 196 7.0 13.0 0.00 0.00 0.00 70 1013.6
20260507103104 54 206 6.0 10.0 0.00 0.00 0.00 70 1013.6
20260507101603 53 162 6.0 10.0 0.00 0.00 0.00 71 1013.6
20260507101104 53 184 7.0 13.0 0.00 0.00 0.00 71 1013.7
20260507100604 53 168 5.0 9.0 0.00 0.00 0.00 72 1013.7
20260507100104 52 180 3.0 8.0 0.00 0.00 0.00 72 1013.7
20260507095604 52 207 7.0 10.0 0.00 0.00 0.00 72 1013.7